Year,Month,Day,Hour,Minute,Value (Times are PST for windgust in km/hr)
2015,11,16,00,00,4.80
2015,11,16,00,01,3.20
2015,11,16,00,02,3.20
2015,11,16,00,03,3.20
2015,11,16,00,04,3.20
2015,11,16,00,05,3.20
2015,11,16,00,06,3.20
2015,11,16,00,07,3.20
2015,11,16,00,08,3.20
2015,11,16,00,09,3.20
2015,11,16,00,10,3.20
2015,11,16,00,11,3.20
2015,11,16,00,12,1.60
2015,11,16,00,13,1.60
2015,11,16,00,14,1.60
2015,11,16,00,15,3.20
2015,11,16,00,16,1.60
2015,11,16,00,17,1.60
2015,11,16,00,18,1.60
2015,11,16,00,19,1.60
2015,11,16,00,20,1.60
2015,11,16,00,21,1.60
2015,11,16,00,22,1.60
2015,11,16,00,24,1.60
2015,11,16,00,25,1.60
2015,11,16,00,28,1.60
2015,11,16,00,29,3.20
2015,11,16,00,30,3.20
2015,11,16,00,31,3.20
2015,11,16,00,32,3.20
2015,11,16,00,33,3.20
2015,11,16,00,34,3.20
2015,11,16,00,35,3.20
2015,11,16,00,36,4.80
2015,11,16,00,37,4.80
2015,11,16,00,38,3.20
2015,11,16,00,39,3.20
2015,11,16,00,40,3.20
2015,11,16,00,41,3.20
2015,11,16,00,42,3.20
2015,11,16,00,43,3.20
2015,11,16,00,44,3.20
2015,11,16,00,45,3.20
2015,11,16,00,46,3.20
2015,11,16,00,47,3.20
2015,11,16,00,48,3.20
2015,11,16,00,49,3.20
2015,11,16,00,50,3.20
2015,11,16,00,51,3.20
2015,11,16,00,52,3.20
2015,11,16,00,53,3.20
2015,11,16,00,54,3.20
2015,11,16,00,55,1.60
2015,11,16,00,56,3.20
2015,11,16,00,57,3.20
2015,11,16,00,58,3.20
2015,11,16,00,59,4.80
2015,11,16,01,00,4.80
2015,11,16,01,01,3.20
2015,11,16,01,02,4.80
2015,11,16,01,03,3.20
2015,11,16,01,04,4.80
2015,11,16,01,05,4.80
2015,11,16,01,06,3.20
2015,11,16,01,07,4.80
2015,11,16,01,08,4.80
2015,11,16,01,09,3.20
2015,11,16,01,10,3.20
2015,11,16,01,11,3.20
2015,11,16,01,12,3.20
2015,11,16,01,13,3.20
2015,11,16,01,14,3.20
2015,11,16,01,15,3.20
2015,11,16,01,16,3.20
2015,11,16,01,17,3.20
2015,11,16,01,18,3.20
2015,11,16,01,19,1.60
2015,11,16,01,20,3.20
2015,11,16,01,21,3.20
2015,11,16,01,22,3.20
2015,11,16,01,23,3.20
2015,11,16,01,24,3.20
2015,11,16,01,25,3.20
2015,11,16,01,26,1.60
2015,11,16,01,27,1.60
2015,11,16,01,28,1.60
2015,11,16,01,29,3.20
2015,11,16,01,30,3.20
2015,11,16,01,31,3.20
2015,11,16,01,32,3.20
2015,11,16,01,33,3.20
2015,11,16,01,34,3.20
2015,11,16,01,35,1.60
2015,11,16,01,36,3.20
2015,11,16,01,37,3.20
2015,11,16,01,38,3.20
2015,11,16,01,39,3.20
2015,11,16,01,40,3.20
2015,11,16,01,41,3.20
2015,11,16,01,42,3.20
2015,11,16,01,43,3.20
2015,11,16,01,44,3.20
2015,11,16,01,45,3.20
2015,11,16,01,46,3.20
2015,11,16,01,47,3.20
2015,11,16,01,48,3.20
2015,11,16,01,49,3.20
2015,11,16,01,50,3.20
2015,11,16,01,51,1.60
2015,11,16,01,52,3.20
2015,11,16,01,53,3.20
2015,11,16,01,54,3.20
2015,11,16,01,55,3.20
2015,11,16,01,56,3.20
2015,11,16,01,57,3.20
2015,11,16,01,58,3.20
2015,11,16,01,59,3.20
2015,11,16,02,00,3.20
2015,11,16,02,01,3.20
2015,11,16,02,02,3.20
2015,11,16,02,03,3.20
2015,11,16,02,04,3.20
2015,11,16,02,05,3.20
2015,11,16,02,06,4.80
2015,11,16,02,07,3.20
2015,11,16,02,08,3.20
2015,11,16,02,09,3.20
2015,11,16,02,10,3.20
2015,11,16,02,11,3.20
2015,11,16,02,12,3.20
2015,11,16,02,13,3.20
2015,11,16,02,14,3.20
2015,11,16,02,15,3.20
2015,11,16,02,16,3.20
2015,11,16,02,17,1.60
2015,11,16,02,18,3.20
2015,11,16,02,19,3.20
2015,11,16,02,20,1.60
2015,11,16,02,21,1.60
2015,11,16,02,22,3.20
2015,11,16,02,23,3.20
2015,11,16,02,24,3.20
2015,11,16,02,25,4.80
2015,11,16,02,26,4.80
2015,11,16,02,27,4.80
2015,11,16,02,28,4.80
2015,11,16,02,29,3.20
2015,11,16,02,30,3.20
2015,11,16,02,31,1.60
2015,11,16,02,32,1.60
2015,11,16,02,33,1.60
2015,11,16,02,39,3.20
2015,11,16,02,40,3.20
2015,11,16,02,41,3.20
2015,11,16,02,42,3.20
2015,11,16,02,43,1.60
2015,11,16,02,44,1.60
2015,11,16,02,45,1.60
2015,11,16,02,46,1.60
2015,11,16,02,47,1.60
2015,11,16,02,48,3.20
2015,11,16,02,49,3.20
2015,11,16,02,50,3.20
2015,11,16,02,51,3.20
2015,11,16,02,52,3.20
2015,11,16,02,53,3.20
2015,11,16,02,54,3.20
2015,11,16,02,55,3.20
2015,11,16,02,56,3.20
2015,11,16,02,57,3.20
2015,11,16,02,58,4.80
2015,11,16,02,59,3.20
2015,11,16,03,00,3.20
2015,11,16,03,01,3.20
2015,11,16,03,02,3.20
2015,11,16,03,03,3.20
2015,11,16,03,04,4.80
2015,11,16,03,05,3.20
2015,11,16,03,06,1.60
2015,11,16,03,07,1.60
2015,11,16,03,08,1.60
2015,11,16,03,09,1.60
2015,11,16,03,10,1.60
2015,11,16,03,11,3.20
2015,11,16,03,12,3.20
2015,11,16,03,13,3.20
2015,11,16,03,14,3.20
2015,11,16,03,15,4.80
2015,11,16,03,16,3.20
2015,11,16,03,17,1.60
2015,11,16,03,18,3.20
2015,11,16,03,19,1.60
2015,11,16,03,20,1.60
2015,11,16,03,21,1.60
2015,11,16,03,22,3.20
2015,11,16,03,23,3.20
2015,11,16,03,24,3.20
2015,11,16,03,25,3.20
2015,11,16,03,26,3.20
2015,11,16,03,27,1.60
2015,11,16,03,28,1.60
2015,11,16,03,29,1.60
2015,11,16,03,30,1.60
2015,11,16,03,31,1.60
2015,11,16,03,32,1.60
2015,11,16,03,33,1.60
2015,11,16,03,34,3.20
2015,11,16,03,35,1.60
2015,11,16,03,36,1.60
2015,11,16,03,37,3.20
2015,11,16,03,38,3.20
2015,11,16,03,39,3.20
2015,11,16,03,40,1.60
2015,11,16,03,41,1.60
2015,11,16,03,42,1.60
2015,11,16,03,43,1.60
2015,11,16,03,44,1.60
2015,11,16,03,45,1.60
2015,11,16,03,46,3.20
2015,11,16,03,47,3.20
2015,11,16,03,48,3.20
2015,11,16,03,49,3.20
2015,11,16,03,50,1.60
2015,11,16,03,51,1.60
2015,11,16,03,52,1.60
2015,11,16,03,53,1.60
2015,11,16,03,55,1.60
2015,11,16,03,56,1.60
2015,11,16,03,57,3.20
2015,11,16,03,58,3.20
2015,11,16,03,59,4.80
2015,11,16,04,00,3.20
2015,11,16,04,01,3.20
2015,11,16,04,02,1.60
2015,11,16,04,03,1.60
2015,11,16,04,04,1.60
2015,11,16,04,05,1.60
2015,11,16,04,06,3.20
2015,11,16,04,07,3.20
2015,11,16,04,08,3.20
2015,11,16,04,09,3.20
2015,11,16,04,10,1.60
2015,11,16,04,11,1.60
2015,11,16,04,12,1.60
2015,11,16,04,13,1.60
2015,11,16,04,14,1.60
2015,11,16,04,15,1.60
2015,11,16,04,20,3.20
2015,11,16,04,21,3.20
2015,11,16,04,22,1.60
2015,11,16,04,23,1.60
2015,11,16,04,24,3.20
2015,11,16,04,25,3.20
2015,11,16,04,26,3.20
2015,11,16,04,27,3.20
2015,11,16,04,28,1.60
2015,11,16,04,29,1.60
2015,11,16,04,37,1.60
2015,11,16,04,38,1.60
2015,11,16,04,52,1.60
2015,11,16,04,53,1.60
2015,11,16,04,54,1.60
2015,11,16,04,55,1.60
2015,11,16,04,56,3.20
2015,11,16,04,57,1.60
2015,11,16,04,58,3.20
2015,11,16,04,59,3.20
2015,11,16,05,00,1.60
2015,11,16,05,01,3.20
2015,11,16,05,02,3.20
2015,11,16,05,03,3.20
2015,11,16,05,04,3.20
2015,11,16,05,05,1.60
2015,11,16,05,06,1.60
2015,11,16,05,07,1.60
2015,11,16,05,08,1.60
2015,11,16,05,12,3.20
2015,11,16,05,13,3.20
2015,11,16,05,14,3.20
2015,11,16,05,15,3.20
2015,11,16,05,16,3.20
2015,11,16,05,17,1.60
2015,11,16,05,18,1.60
2015,11,16,05,19,1.60
2015,11,16,05,20,3.20
2015,11,16,05,21,3.20
2015,11,16,05,22,3.20
2015,11,16,05,23,3.20
2015,11,16,05,24,3.20
2015,11,16,05,25,1.60
2015,11,16,05,26,3.20
2015,11,16,05,27,1.60
2015,11,16,05,28,1.60
2015,11,16,05,29,1.60
2015,11,16,05,30,1.60
2015,11,16,05,31,1.60
2015,11,16,05,32,1.60
2015,11,16,05,33,1.60
2015,11,16,05,34,3.20
2015,11,16,05,35,3.20
2015,11,16,05,36,1.60
2015,11,16,05,37,1.60
2015,11,16,05,38,3.20
2015,11,16,05,39,3.20
2015,11,16,05,40,3.20
2015,11,16,05,41,3.20
2015,11,16,05,42,3.20
2015,11,16,05,43,4.80
2015,11,16,05,44,3.20
2015,11,16,05,45,1.60
2015,11,16,05,46,3.20
2015,11,16,05,47,1.60
2015,11,16,05,48,1.60
2015,11,16,05,49,3.20
2015,11,16,05,50,1.60
2015,11,16,05,51,3.20
2015,11,16,05,52,1.60
2015,11,16,05,53,4.80
2015,11,16,05,54,1.60
2015,11,16,05,55,1.60
2015,11,16,05,56,3.20
2015,11,16,05,57,3.20
2015,11,16,05,58,3.20
2015,11,16,05,59,3.20
2015,11,16,06,00,4.80
2015,11,16,06,01,3.20
2015,11,16,06,02,3.20
2015,11,16,06,03,1.60
2015,11,16,06,04,1.60
2015,11,16,06,05,3.20
2015,11,16,06,06,1.60
2015,11,16,06,07,3.20
2015,11,16,06,08,3.20
2015,11,16,06,09,3.20
2015,11,16,06,10,3.20
2015,11,16,06,11,3.20
2015,11,16,06,12,1.60
2015,11,16,06,13,3.20
2015,11,16,06,14,1.60
2015,11,16,06,15,1.60
2015,11,16,06,16,8.10
2015,11,16,06,17,3.20
2015,11,16,06,18,6.40
2015,11,16,06,19,12.90
2015,11,16,06,20,4.80
2015,11,16,06,21,12.90
2015,11,16,06,22,6.40
2015,11,16,06,23,6.40
2015,11,16,06,24,8.10
2015,11,16,06,25,9.60
2015,11,16,06,26,12.90
2015,11,16,06,27,8.10
2015,11,16,06,28,11.30
2015,11,16,06,29,17.70
2015,11,16,06,30,12.90
2015,11,16,06,31,6.40
2015,11,16,06,32,12.90
2015,11,16,06,33,9.60
2015,11,16,06,34,12.90
2015,11,16,06,35,14.50
2015,11,16,06,36,11.30
2015,11,16,06,37,17.70
2015,11,16,06,38,8.10
2015,11,16,06,39,11.30
2015,11,16,06,40,8.10
2015,11,16,06,41,4.80
2015,11,16,06,42,14.50
2015,11,16,06,43,12.90
2015,11,16,06,44,19.30
2015,11,16,06,45,12.90
2015,11,16,06,46,20.90
2015,11,16,06,47,12.90
2015,11,16,06,48,22.50
2015,11,16,06,49,16.10
2015,11,16,06,50,11.30
2015,11,16,06,51,14.50
2015,11,16,06,52,14.50
2015,11,16,06,53,22.50
2015,11,16,06,54,20.90
2015,11,16,06,55,14.50
2015,11,16,06,56,19.30
2015,11,16,06,57,16.10
2015,11,16,06,58,12.90
2015,11,16,06,59,14.50
2015,11,16,07,00,12.90
2015,11,16,07,01,9.60
2015,11,16,07,02,11.30
2015,11,16,07,03,14.50
2015,11,16,07,04,14.50
2015,11,16,07,05,11.30
2015,11,16,07,06,12.90
2015,11,16,07,07,14.50
2015,11,16,07,08,20.90
2015,11,16,07,09,19.30
2015,11,16,07,10,17.70
2015,11,16,07,11,12.90
2015,11,16,07,12,17.70
2015,11,16,07,13,19.30
2015,11,16,07,14,12.90
2015,11,16,07,15,16.10
2015,11,16,07,16,14.50
2015,11,16,07,17,11.30
2015,11,16,07,18,24.20
2015,11,16,07,19,19.30
2015,11,16,07,20,19.30
2015,11,16,07,21,14.50
2015,11,16,07,22,11.30
2015,11,16,07,23,12.90
2015,11,16,07,24,12.90
2015,11,16,07,25,11.30
2015,11,16,07,26,12.90
2015,11,16,07,27,14.50
2015,11,16,07,28,14.50
2015,11,16,07,29,16.10
2015,11,16,07,30,16.10
2015,11,16,07,31,24.20
2015,11,16,07,32,12.90
2015,11,16,07,33,12.90
2015,11,16,07,34,9.60
2015,11,16,07,35,9.60
2015,11,16,07,36,8.10
2015,11,16,07,37,14.50
2015,11,16,07,38,12.90
2015,11,16,07,39,16.10
2015,11,16,07,40,14.50
2015,11,16,07,41,19.30
2015,11,16,07,42,22.50
2015,11,16,07,43,16.10
2015,11,16,07,44,6.40
2015,11,16,07,45,9.60
2015,11,16,07,46,19.30
2015,11,16,07,47,14.50
2015,11,16,07,48,17.70
2015,11,16,07,49,20.90
2015,11,16,07,50,17.70
2015,11,16,07,51,17.70
2015,11,16,07,52,17.70
2015,11,16,07,53,14.50
2015,11,16,07,54,4.80
2015,11,16,07,55,12.90
2015,11,16,07,56,16.10
2015,11,16,07,57,24.20
2015,11,16,07,58,22.50
2015,11,16,07,59,22.50
2015,11,16,08,00,17.70
2015,11,16,08,01,14.50
2015,11,16,08,02,17.70
2015,11,16,08,03,14.50
2015,11,16,08,04,16.10
2015,11,16,08,05,19.30
2015,11,16,08,06,24.20
2015,11,16,08,07,27.40
2015,11,16,08,08,17.70
2015,11,16,08,09,17.70
2015,11,16,08,10,19.30
2015,11,16,08,11,22.50
2015,11,16,08,12,20.90
2015,11,16,08,13,25.70
2015,11,16,08,14,25.70
2015,11,16,08,15,22.50
2015,11,16,08,16,30.60
2015,11,16,08,17,25.70
2015,11,16,08,18,11.30
2015,11,16,08,19,29.00
2015,11,16,08,20,17.70
2015,11,16,08,21,22.50
2015,11,16,08,22,43.50
2015,11,16,08,23,29.00
2015,11,16,08,24,25.70
2015,11,16,08,25,40.20
2015,11,16,08,26,27.40
2015,11,16,08,27,33.80
2015,11,16,08,28,32.20
2015,11,16,08,29,40.20
2015,11,16,08,30,33.80
2015,11,16,08,31,38.60
2015,11,16,08,32,38.60
2015,11,16,08,33,22.50
2015,11,16,08,34,24.20
2015,11,16,08,35,33.80
2015,11,16,08,36,32.20
2015,11,16,08,37,46.70
2015,11,16,08,38,30.60
2015,11,16,08,39,43.50
2015,11,16,08,40,35.40
2015,11,16,08,41,24.20
2015,11,16,08,42,25.70
2015,11,16,08,43,19.30
2015,11,16,08,44,22.50
2015,11,16,08,45,29.00
2015,11,16,08,46,24.20
2015,11,16,08,47,40.20
2015,11,16,08,48,30.60
2015,11,16,08,49,14.50
2015,11,16,08,50,22.50
2015,11,16,08,51,43.50
2015,11,16,08,52,27.40
2015,11,16,08,53,19.30
2015,11,16,08,54,29.00
2015,11,16,08,55,24.20
2015,11,16,08,56,17.70
2015,11,16,08,57,20.90
2015,11,16,08,58,24.20
2015,11,16,08,59,25.70
2015,11,16,09,00,24.20
2015,11,16,09,01,22.50
2015,11,16,09,02,14.50
2015,11,16,09,03,32.20
2015,11,16,09,04,33.80
2015,11,16,09,05,29.00
2015,11,16,09,06,33.80
2015,11,16,09,07,24.20
2015,11,16,09,08,25.70
2015,11,16,09,09,27.40
2015,11,16,09,10,20.90
2015,11,16,09,11,24.20
2015,11,16,09,12,35.40
2015,11,16,09,13,30.60
2015,11,16,09,14,25.70
2015,11,16,09,15,30.60
2015,11,16,09,16,29.00
2015,11,16,09,17,46.70
2015,11,16,09,18,19.30
2015,11,16,09,19,33.80
2015,11,16,09,20,22.50
2015,11,16,09,21,33.80
2015,11,16,09,22,30.60
2015,11,16,09,23,20.90
2015,11,16,09,24,24.20
2015,11,16,09,25,24.20
2015,11,16,09,26,14.50
2015,11,16,09,27,35.40
2015,11,16,09,28,24.20
2015,11,16,09,29,24.20
2015,11,16,09,30,20.90
2015,11,16,09,31,25.70
2015,11,16,09,32,22.50
2015,11,16,09,33,27.40
2015,11,16,09,34,27.40
2015,11,16,09,35,24.20
2015,11,16,09,36,25.70
2015,11,16,09,37,19.30
2015,11,16,09,38,17.70
2015,11,16,09,39,19.30
2015,11,16,09,40,19.30
2015,11,16,09,41,19.30
2015,11,16,09,42,17.70
2015,11,16,09,43,37.00
2015,11,16,09,44,22.50
2015,11,16,09,45,32.20
2015,11,16,09,46,19.30
2015,11,16,09,47,29.00
2015,11,16,09,48,57.90
2015,11,16,09,49,16.10
2015,11,16,09,50,27.40
2015,11,16,09,51,25.70
2015,11,16,09,52,27.40
2015,11,16,09,53,24.20
2015,11,16,09,54,17.70
2015,11,16,09,55,16.10
2015,11,16,09,56,19.30
2015,11,16,09,57,38.60
2015,11,16,09,58,37.00
2015,11,16,09,59,27.40
2015,11,16,10,00,27.40
2015,11,16,10,01,33.80
2015,11,16,10,02,32.20
2015,11,16,10,03,40.20
2015,11,16,10,04,35.40
2015,11,16,10,05,22.50
2015,11,16,10,06,29.00
2015,11,16,10,07,32.20
2015,11,16,10,08,30.60
2015,11,16,10,09,20.90
2015,11,16,10,10,27.40
2015,11,16,10,11,27.40
2015,11,16,10,12,22.50
2015,11,16,10,13,33.80
2015,11,16,10,14,38.60
2015,11,16,10,15,27.40
2015,11,16,10,16,33.80
2015,11,16,10,17,19.30
2015,11,16,10,18,27.40
2015,11,16,10,19,33.80
2015,11,16,10,20,29.00
2015,11,16,10,21,24.20
2015,11,16,10,22,45.10
2015,11,16,10,23,33.80
2015,11,16,10,24,37.00
2015,11,16,10,25,29.00
2015,11,16,10,26,30.60
2015,11,16,10,27,49.90
2015,11,16,10,28,37.00
2015,11,16,10,29,27.40
2015,11,16,10,30,22.50
2015,11,16,10,31,32.20
2015,11,16,10,32,24.20
2015,11,16,10,33,33.80
2015,11,16,10,34,41.80
2015,11,16,10,35,37.00
2015,11,16,10,36,40.20
2015,11,16,10,37,41.80
2015,11,16,10,38,29.00
2015,11,16,10,39,30.60
2015,11,16,10,40,25.70
2015,11,16,10,41,32.20
2015,11,16,10,42,30.60
2015,11,16,10,43,32.20
2015,11,16,10,44,20.90
2015,11,16,10,45,30.60
2015,11,16,10,46,33.80
2015,11,16,10,47,25.70
2015,11,16,10,48,33.80
2015,11,16,10,49,41.80
2015,11,16,10,50,27.40
2015,11,16,10,51,32.20
2015,11,16,10,52,33.80
2015,11,16,10,53,25.70
2015,11,16,10,54,30.60
2015,11,16,10,55,25.70
2015,11,16,10,56,19.30
2015,11,16,10,57,48.30
2015,11,16,10,58,37.00
2015,11,16,10,59,30.60
2015,11,16,11,00,33.80
2015,11,16,11,01,25.70
2015,11,16,11,02,27.40
2015,11,16,11,03,35.40
2015,11,16,11,04,32.20
2015,11,16,11,05,37.00
2015,11,16,11,06,41.80
2015,11,16,11,07,35.40
2015,11,16,11,08,35.40
2015,11,16,11,09,43.50
2015,11,16,11,10,20.90
2015,11,16,11,11,32.20
2015,11,16,11,12,33.80
2015,11,16,11,13,20.90
2015,11,16,11,14,19.30
2015,11,16,11,15,40.20
2015,11,16,11,16,35.40
2015,11,16,11,17,27.40
2015,11,16,11,18,25.70
2015,11,16,11,19,29.00
2015,11,16,11,20,19.30
2015,11,16,11,21,20.90
2015,11,16,11,22,20.90
2015,11,16,11,23,41.80
2015,11,16,11,24,37.00
2015,11,16,11,25,38.60
2015,11,16,11,26,38.60
2015,11,16,11,27,35.40
2015,11,16,11,28,19.30
2015,11,16,11,29,32.20
2015,11,16,11,30,30.60
2015,11,16,11,31,33.80
2015,11,16,11,32,45.10
2015,11,16,11,33,38.60
2015,11,16,11,34,48.30
2015,11,16,11,35,32.20
2015,11,16,11,36,45.10
2015,11,16,11,37,29.00
2015,11,16,11,38,35.40
2015,11,16,11,39,29.00
2015,11,16,11,40,37.00
2015,11,16,11,41,37.00
2015,11,16,11,42,29.00
2015,11,16,11,43,37.00
2015,11,16,11,44,32.20
2015,11,16,11,45,20.90
2015,11,16,11,46,24.20
2015,11,16,11,47,27.40
2015,11,16,11,48,45.10
2015,11,16,11,49,51.50
2015,11,16,11,50,33.80
2015,11,16,11,51,48.30
2015,11,16,11,52,59.50
2015,11,16,11,53,48.30
2015,11,16,11,54,29.00
2015,11,16,11,55,56.30
2015,11,16,11,56,41.80
2015,11,16,11,57,40.20
2015,11,16,11,58,57.90
2015,11,16,11,59,33.80
2015,11,16,12,00,43.50
2015,11,16,12,01,48.30
2015,11,16,12,02,45.10
2015,11,16,12,03,57.90
2015,11,16,12,04,37.00
2015,11,16,12,05,54.70
2015,11,16,12,06,41.80
2015,11,16,12,07,66.00
2015,11,16,12,08,38.60
2015,11,16,12,09,43.50
2015,11,16,12,10,45.10
2015,11,16,12,11,40.20
2015,11,16,12,12,46.70
2015,11,16,12,13,45.10
2015,11,16,12,14,37.00
2015,11,16,12,15,54.70
2015,11,16,12,16,29.00
2015,11,16,12,17,48.30
2015,11,16,12,18,49.90
2015,11,16,12,19,49.90
2015,11,16,12,20,53.10
2015,11,16,12,21,45.10
2015,11,16,12,22,46.70
2015,11,16,12,23,41.80
2015,11,16,12,24,46.70
2015,11,16,12,25,57.90
2015,11,16,12,26,56.30
2015,11,16,12,27,33.80
2015,11,16,12,28,32.20
2015,11,16,12,29,30.60
2015,11,16,12,30,45.10
2015,11,16,12,31,32.20
2015,11,16,12,32,30.60
2015,11,16,12,33,30.60
2015,11,16,12,34,41.80
2015,11,16,12,35,54.70
2015,11,16,12,36,37.00
2015,11,16,12,37,38.60
2015,11,16,12,38,33.80
2015,11,16,12,39,43.50
2015,11,16,12,40,38.60
2015,11,16,12,41,40.20
2015,11,16,12,42,56.30
2015,11,16,12,43,40.20
2015,11,16,12,44,40.20
2015,11,16,12,45,38.60
2015,11,16,12,46,51.50
2015,11,16,12,47,48.30
2015,11,16,12,48,27.40
2015,11,16,12,49,37.00
2015,11,16,12,50,35.40
2015,11,16,12,51,38.60
2015,11,16,12,52,32.20
2015,11,16,12,53,51.50
2015,11,16,12,54,32.20
2015,11,16,12,55,70.80
2015,11,16,12,56,45.10
2015,11,16,12,57,43.50
2015,11,16,12,58,33.80
2015,11,16,12,59,49.90
2015,11,16,13,00,48.30
2015,11,16,13,01,41.80
2015,11,16,13,02,51.50
2015,11,16,13,03,57.90
2015,11,16,13,04,43.50
2015,11,16,13,05,48.30
2015,11,16,13,06,38.60
2015,11,16,13,07,37.00
2015,11,16,13,08,45.10
2015,11,16,13,09,38.60
2015,11,16,13,10,48.30
2015,11,16,13,11,29.00
2015,11,16,13,12,33.80
2015,11,16,13,13,40.20
2015,11,16,13,14,46.70
2015,11,16,13,15,37.00
2015,11,16,13,16,40.20
2015,11,16,13,17,40.20
2015,11,16,13,18,32.20
2015,11,16,13,19,25.70
2015,11,16,13,20,29.00
2015,11,16,13,21,49.90
2015,11,16,13,22,37.00
2015,11,16,13,23,37.00
2015,11,16,13,24,46.70
2015,11,16,13,25,33.80
2015,11,16,13,26,35.40
2015,11,16,13,27,57.90
2015,11,16,13,28,49.90
2015,11,16,13,29,40.20
2015,11,16,13,30,33.80
2015,11,16,13,31,33.80
2015,11,16,13,32,29.00
2015,11,16,13,33,37.00
2015,11,16,13,34,38.60
2015,11,16,13,35,38.60
2015,11,16,13,36,41.80
2015,11,16,13,37,40.20
2015,11,16,13,38,53.10
2015,11,16,13,39,49.90
2015,11,16,13,40,54.70
2015,11,16,13,41,62.70
2015,11,16,13,42,54.70
2015,11,16,13,43,49.90
2015,11,16,13,44,45.10
2015,11,16,13,45,53.10
2015,11,16,13,46,38.60
2015,11,16,13,47,25.70
2015,11,16,13,48,40.20
2015,11,16,13,49,41.80
2015,11,16,13,50,38.60
2015,11,16,13,51,48.30
2015,11,16,13,52,38.60
2015,11,16,13,53,35.40
2015,11,16,13,54,43.50
2015,11,16,13,55,35.40
2015,11,16,13,56,41.80
2015,11,16,13,57,45.10
2015,11,16,13,58,43.50
2015,11,16,13,59,30.60
2015,11,16,14,00,45.10
2015,11,16,14,01,33.80
2015,11,16,14,02,37.00
2015,11,16,14,03,40.20
2015,11,16,14,04,33.80
2015,11,16,14,05,33.80
2015,11,16,14,06,37.00
2015,11,16,14,07,35.40
2015,11,16,14,08,43.50
2015,11,16,14,09,40.20
2015,11,16,14,10,40.20
2015,11,16,14,11,41.80
2015,11,16,14,12,29.00
2015,11,16,14,13,33.80
2015,11,16,14,14,41.80
2015,11,16,14,15,46.70
2015,11,16,14,16,37.00
2015,11,16,14,17,24.20
2015,11,16,14,18,35.40
2015,11,16,14,19,25.70
2015,11,16,14,20,33.80
2015,11,16,14,21,25.70
2015,11,16,14,22,29.00
2015,11,16,14,23,32.20
2015,11,16,14,24,32.20
2015,11,16,14,25,29.00
2015,11,16,14,26,46.70
2015,11,16,14,27,38.60
2015,11,16,14,28,37.00
2015,11,16,14,29,27.40
2015,11,16,14,30,32.20
2015,11,16,14,31,30.60
2015,11,16,14,32,51.50
2015,11,16,14,33,30.60
2015,11,16,14,34,35.40
2015,11,16,14,35,45.10
2015,11,16,14,36,46.70
2015,11,16,14,37,43.50
2015,11,16,14,38,27.40
2015,11,16,14,39,43.50
2015,11,16,14,40,33.80
2015,11,16,14,41,43.50
2015,11,16,14,42,27.40
2015,11,16,14,43,48.30
2015,11,16,14,44,49.90
2015,11,16,14,45,49.90
2015,11,16,14,46,35.40
2015,11,16,14,47,35.40
2015,11,16,14,48,12.90
2015,11,16,14,49,40.20
2015,11,16,14,50,48.30
2015,11,16,14,51,43.50
2015,11,16,14,52,49.90
2015,11,16,14,53,32.20
2015,11,16,14,54,45.10
2015,11,16,14,55,43.50
2015,11,16,14,56,40.20
2015,11,16,14,57,48.30
2015,11,16,14,58,51.50
2015,11,16,14,59,37.00
2015,11,16,15,00,35.40
2015,11,16,15,01,30.60
2015,11,16,15,02,53.10
2015,11,16,15,03,49.90
2015,11,16,15,04,49.90
2015,11,16,15,05,53.10
2015,11,16,15,06,51.50
2015,11,16,15,07,37.00
2015,11,16,15,08,35.40
2015,11,16,15,09,43.50
2015,11,16,15,10,41.80
2015,11,16,15,11,40.20
2015,11,16,15,12,51.50
2015,11,16,15,13,46.70
2015,11,16,15,14,40.20
2015,11,16,15,15,49.90
2015,11,16,15,16,53.10
2015,11,16,15,17,35.40
2015,11,16,15,18,37.00
2015,11,16,15,19,49.90
2015,11,16,15,20,29.00
2015,11,16,15,21,48.30
2015,11,16,15,22,43.50
2015,11,16,15,23,35.40
2015,11,16,15,24,41.80
2015,11,16,15,25,40.20
2015,11,16,15,26,53.10
2015,11,16,15,27,37.00
2015,11,16,15,28,45.10
2015,11,16,15,29,51.50
2015,11,16,15,30,33.80
2015,11,16,15,31,38.60
2015,11,16,15,32,30.60
2015,11,16,15,33,43.50
2015,11,16,15,34,38.60
2015,11,16,15,35,48.30
2015,11,16,15,36,48.30
2015,11,16,15,37,45.10
2015,11,16,15,38,25.70
2015,11,16,15,39,29.00
2015,11,16,15,40,49.90
2015,11,16,15,41,33.80
2015,11,16,15,42,30.60
2015,11,16,15,43,41.80
2015,11,16,15,44,41.80
2015,11,16,15,45,29.00
2015,11,16,15,46,25.70
2015,11,16,15,47,29.00
2015,11,16,15,48,27.40
2015,11,16,15,49,22.50
2015,11,16,15,50,24.20
2015,11,16,15,51,22.50
2015,11,16,15,52,25.70
2015,11,16,15,53,32.20
2015,11,16,15,54,27.40
2015,11,16,15,55,30.60
2015,11,16,15,56,27.40
2015,11,16,15,57,27.40
2015,11,16,15,58,38.60
2015,11,16,15,59,33.80
2015,11,16,16,00,30.60
2015,11,16,16,01,41.80
2015,11,16,16,02,22.50
2015,11,16,16,03,20.90
2015,11,16,16,04,27.40
2015,11,16,16,05,20.90
2015,11,16,16,06,32.20
2015,11,16,16,07,27.40
2015,11,16,16,08,24.20
2015,11,16,16,09,29.00
2015,11,16,16,10,20.90
2015,11,16,16,11,27.40
2015,11,16,16,12,12.90
2015,11,16,16,13,25.70
2015,11,16,16,14,17.70
2015,11,16,16,15,19.30
2015,11,16,16,16,22.50
2015,11,16,16,17,38.60
2015,11,16,16,18,19.30
2015,11,16,16,19,12.90
2015,11,16,16,20,17.70
2015,11,16,16,21,24.20
2015,11,16,16,22,12.90
2015,11,16,16,23,20.90
2015,11,16,16,24,20.90
2015,11,16,16,25,19.30
2015,11,16,16,26,12.90
2015,11,16,16,27,25.70
2015,11,16,16,28,32.20
2015,11,16,16,29,19.30
2015,11,16,16,30,24.20
2015,11,16,16,31,19.30
2015,11,16,16,32,17.70
2015,11,16,16,33,24.20
2015,11,16,16,34,17.70
2015,11,16,16,35,25.70
2015,11,16,16,36,27.40
2015,11,16,16,37,25.70
2015,11,16,16,38,17.70
2015,11,16,16,39,29.00
2015,11,16,16,40,25.70
2015,11,16,16,41,20.90
2015,11,16,16,42,12.90
2015,11,16,16,43,20.90
2015,11,16,16,44,19.30
2015,11,16,16,45,19.30
2015,11,16,16,46,16.10
2015,11,16,16,47,14.50
2015,11,16,16,48,24.20
2015,11,16,16,49,24.20
2015,11,16,16,50,22.50
2015,11,16,16,51,30.60
2015,11,16,16,52,24.20
2015,11,16,16,53,19.30
2015,11,16,16,54,16.10
2015,11,16,16,55,33.80
2015,11,16,16,56,29.00
2015,11,16,16,57,27.40
2015,11,16,16,58,32.20
2015,11,16,16,59,14.50
2015,11,16,17,00,16.10
2015,11,16,17,01,19.30
2015,11,16,17,02,16.10
2015,11,16,17,03,19.30
2015,11,16,17,04,20.90
2015,11,16,17,05,35.40
2015,11,16,17,06,20.90
2015,11,16,17,07,29.00
2015,11,16,17,08,25.70
2015,11,16,17,09,14.50
2015,11,16,17,10,9.60
2015,11,16,17,11,11.30
2015,11,16,17,12,16.10
2015,11,16,17,13,24.20
2015,11,16,17,14,12.90
2015,11,16,17,15,27.40
2015,11,16,17,16,17.70
2015,11,16,17,17,17.70
2015,11,16,17,18,20.90
2015,11,16,17,19,32.20
2015,11,16,17,20,27.40
2015,11,16,17,21,25.70
2015,11,16,17,22,25.70
2015,11,16,17,23,40.20
2015,11,16,17,24,46.70
2015,11,16,17,25,27.40
2015,11,16,17,26,33.80
2015,11,16,17,27,38.60
2015,11,16,17,28,24.20
2015,11,16,17,29,20.90
2015,11,16,17,30,20.90
2015,11,16,17,31,30.60
2015,11,16,17,32,20.90
2015,11,16,17,33,22.50
2015,11,16,17,34,22.50
2015,11,16,17,35,19.30
2015,11,16,17,36,22.50
2015,11,16,17,37,25.70
2015,11,16,17,38,19.30
2015,11,16,17,39,12.90
2015,11,16,17,40,11.30
2015,11,16,17,41,12.90
2015,11,16,17,42,19.30
2015,11,16,17,43,16.10
2015,11,16,17,44,16.10
2015,11,16,17,45,12.90
2015,11,16,17,46,11.30
2015,11,16,17,47,12.90
2015,11,16,17,48,20.90
2015,11,16,17,49,17.70
2015,11,16,17,50,19.30
2015,11,16,17,51,17.70
2015,11,16,17,52,17.70
2015,11,16,17,53,30.60
2015,11,16,17,54,30.60
2015,11,16,17,55,14.50
2015,11,16,17,56,17.70
2015,11,16,17,57,16.10
2015,11,16,17,58,11.30
2015,11,16,17,59,9.60
2015,11,16,18,00,19.30
2015,11,16,18,01,19.30
2015,11,16,18,02,29.00
2015,11,16,18,03,16.10
2015,11,16,18,04,12.90
2015,11,16,18,05,14.50
2015,11,16,18,06,8.10
2015,11,16,18,07,17.70
2015,11,16,18,08,14.50
2015,11,16,18,09,17.70
2015,11,16,18,10,16.10
2015,11,16,18,11,12.90